CW3081 Weather Reports


Display with metric or nautical units.
time (UTC)temp
F
wind
direction
speed
MPH
gust
MPH
rain 1hr
in
rain 24hr
in
rain mn
in
humidity
%
barometer
mb
20260507193048 64 273 1.0 3.0 0.00 0.00 0.00 55 1014.8
20260507191547 64 280 1.0 4.0 0.00 0.00 0.00 50 1015.1
20260507190051 64 268 0.0 2.0 0.00 0.00 0.00 50 1015.1
20260507184540 64 283 0.0 2.0 0.00 0.00 0.00 54 1015.2
20260507183048 63 0 1.0 3.0 0.00 0.00 0.00 50 1015.1
20260507181554 64 6 0.0 3.0 0.00 0.00 0.00 51 1015.2
20260507180046 63 344 0.0 2.0 0.00 0.00 0.00 56 1015.2
20260507174554 62 0 0.0 2.0 0.00 0.00 0.00 56 1015.4
20260507173113 61 324 1.0 2.0 0.00 0.00 0.00 55 1015.8
20260507171554 61 0 0.0 3.0 0.00 0.00 0.00 59 1016.1
20260507170107 60 321 0.0 4.0 0.00 0.00 0.00 60 1016.3
20260507164553 60 297 1.0 2.0 0.00 0.00 0.00 62 1016.3
20260507163047 59 294 1.0 3.0 0.00 0.00 0.00 65 1016.3
20260507161559 59 0 0.0 3.0 0.00 0.00 0.00 66 1016.4
20260507160044 58 336 0.0 6.0 0.00 0.00 0.00 69 1016.2
20260507154549 57 0 0.0 2.0 0.00 0.00 0.00 73 1016.5
20260507153051 56 308 0.0 2.0 0.00 0.00 0.00 74 1016.3
20260507151546 56 168 0.0 2.0 0.00 0.00 0.00 74 1016.3
20260507150049 55 15 0.0 2.0 0.00 0.00 0.00 76 1016.3
20260507144546 54 0 0.0 3.0 0.00 0.00 0.00 82 1016.4
20260507143048 53 0 0.0 1.0 0.00 0.00 0.00 85 1016.4
20260507141559 53 0 0.0 1.0 0.00 0.00 0.00 88 1016.3
20260507140045 52 0 0.0 2.0 0.00 0.00 0.00 89 1016.3
20260507134545 51 337 0.0 1.0 0.00 0.00 0.00 92 1016.1
20260507133049 50 0 0.0 0.0 0.00 0.00 0.00 95 1016.1
20260507131548 50 0 0.0 0.0 0.00 0.00 0.00 96 1016.1
20260507130046 49 0 0.0 0.0 0.00 0.00 0.00 96 1016.0
20260507124544 48 0 0.0 0.0 0.00 0.00 0.00 97 1015.8
20260507123045 47 0 0.0 0.0 0.00 0.00 0.00 97 1015.8
20260507121544 47 0 0.0 0.0 0.00 0.00 0.00 97 1015.7
20260507120045 0 0.0 0.0 0.00 0.00 0.00 1015.7
20260507114542 0 0.0 0.0 0.00 0.00 0.00 1015.6
20260507113050 0 0.0 0.0 0.00 0.00 0.00 1015.3
20260507111543 0 0.0 0.0 0.00 0.00 0.00 1015.2
20260507110046 0 0.0 0.0 0.00 0.00 0.00 1014.7
20260507104538 0 0.0 0.0 0.00 0.00 0.00 1014.5
20260507103047 0 0.0 0.0 0.00 0.00 0.00 1014.4
20260507101545 48 0 0.0 0.0 0.00 0.00 0.00 96 1014.3
20260507100046 48 0 0.0 0.0 0.00 0.00 0.00 96 1014.4
20260507094549 49 0 0.0 0.0 0.00 0.00 0.00 96 1014.4
20260507093038 49 0 0.0 0.0 0.00 0.00 0.00 96 1014.2
20260507091547 49 0 0.0 0.0 0.00 0.00 0.00 96 1014.2
20260507090047 50 0 0.0 0.0 0.00 0.00 0.00 97 1014.4
20260507084541 50 0 0.0 0.0 0.00 0.00 0.00 97 1014.2
20260507083044 50 0 0.0 0.0 0.00 0.00 0.00 97 1014.2
20260507081544 50 0 0.0 0.0 0.00 0.00 0.00 97 1014.4
20260507080041 50 0 0.0 0.0 0.00 0.00 0.00 97 1014.2
20260507074550 51 0 0.0 0.0 0.00 0.00 0.00 97 1014.1
20260507073104 51 0 0.0 0.0 0.00 0.00 0.00 97 1014.2
20260507071543 51 0 0.0 0.0 0.00 0.00 0.00 97 1014.2
20260507070049 51 0 0.0 0.0 0.00 0.00 0.00 97 1014.5
20260507064604 51 0 0.0 0.0 0.00 0.00 0.00 97 1014.4
20260507063056 51 0 0.0 0.0 0.00 0.00 0.00 97 1014.5
20260507061543 51 0 0.0 0.0 0.00 0.00 0.00 97 1014.6
20260507060044 51 0 0.0 0.0 0.00 0.00 0.00 97 1014.5
20260507054546 51 0 0.0 0.0 0.00 0.00 0.00 97 1014.5
20260507053047 51 0 0.0 0.0 0.00 0.00 0.00 97 1014.2
20260507051545 52 0 0.0 0.0 0.00 0.00 0.00 97 1014.4
20260507050050 52 0 0.0 0.0 0.00 0.00 0.00 97 1014.8
20260507044549 51 0 0.0 0.0 0.00 0.00 0.00 97 1014.8
20260507043044 52 0 0.0 0.0 0.00 0.00 0.00 97 1014.9
20260507041545 51 0 0.0 0.0 0.00 0.00 0.00 97 1015.1
20260507040052 52 0 0.0 0.0 0.00 0.00 0.00 97 1014.8
20260507034556 52 0 0.0 0.0 0.00 0.00 0.00 97 1014.9
20260507033101 52 0 0.0 0.0 0.00 0.00 0.00 96 1014.6
20260507031539 51 0 0.0 0.0 0.00 0.00 0.00 96 1015.1
20260507030049 52 0 0.0 0.0 0.00 0.00 0.00 96 1014.5
20260507024554 52 0 0.0 0.0 0.00 0.00 0.00 96 1014.6
20260507023045 52 0 0.0 0.0 0.00 0.00 0.00 96 1014.3
20260507021544 52 0 0.0 0.0 0.00 0.00 0.00 96 1014.2
20260507020042 52 0 0.0 0.0 0.00 0.00 0.00 96 1014.3
20260507014552 52 0 0.0 0.0 0.00 0.00 0.00 96 1014.1
20260507013054 52 0 0.0 0.0 0.00 0.00 0.00 96 1014.4
20260507011545 52 0 0.0 0.0 0.00 0.00 0.00 96 1015.3
20260507010043 53 0 0.0 0.0 0.00 0.00 0.00 96 1015.1
20260507004543 53 0 0.0 0.0 0.00 0.00 0.00 96 1014.0
20260507003039 53 0 0.0 0.0 0.00 0.00 0.00 96 1014.1
20260507001603 53 0 0.0 0.0 0.00 0.00 0.00 96 1013.3
20260507000046 54 0 0.0 0.0 0.00 0.00 0.00 96 1012.5
20260506234552 54 0 0.0 0.0 0.00 0.00 0.00 96 1012.5
20260506233052 54 0 0.0 0.0 0.00 0.00 0.00 96 1012.9
20260506231541 55 0 0.0 0.0 0.00 0.00 0.00 96 1013.5
20260506230049 55 0 0.0 0.0 0.00 0.00 0.00 96 1013.5
20260506224600 55 0 0.0 0.0 0.00 0.00 0.00 96 1013.5
20260506223041 55 0 0.0 0.0 0.00 0.00 0.00 96 1014.1
20260506221544 55 0 0.0 0.0 0.00 0.00 0.00 96 1013.7
20260506220051 55 0 0.0 0.0 0.00 0.00 0.00 96 1013.8
20260506214549 55 0 0.0 0.0 0.00 0.00 0.00 96 1013.7
20260506213046 55 0 0.0 0.0 0.00 0.00 0.00 96 1013.6
20260506211553 55 0 0.0 0.0 0.00 0.00 0.00 96 1013.6
20260506210045 54 0 0.0 0.0 0.00 0.00 0.00 96 1013.0
20260506204550 54 0 0.0 0.0 0.00 0.00 0.00 96 1013.3
20260506203057 54 0 0.0 0.0 0.00 0.00 0.00 96 1013.2
20260506201547 53 0 0.0 0.0 0.00 0.00 0.00 96 1013.3
20260506200047 53 0 0.0 0.0 0.00 0.00 0.00 96 1013.7
20260506194553 53 0 0.0 0.0 0.00 0.00 0.00 96 1013.6